Location: Althorst
(53.6379°N, 10.7715°E)
Time: 08:53:31
(UTC+00:00)

Cosmos 2322 Rocket - Pass Details

Date: 10 December 2019
Orbit: 831 x 852 km, 71.0° (Epoch: 19 January)

Event Time Altitude Azimuth Distance (km) Brightness Sun altitude
Rises 15:53:02 0° 236° (SW) 3,376 7.8 -7.7°
Reaches altitude 10° 15:55:35 10° 243° (WSW) 2,448 6.4 -8.1°
Maximum altitude 16:00:54 42° 314° (NW) 1,186 3.2 -8.8°
Drops below altitude 10° 16:06:17 10° 25° (NNE) 2,473 4.2 -9.5°
Enters shadow 16:07:18 - 29° (NNE) 2,838 4.4 -9.6°
